"startDT [UTC]","vpos","CH4 [ppm]","stdev(CH4) [ppm]","CO2 [ppm]","stdev(CO2) [ppm]","H2O [ppm]","stdev(H2O)","p_LGR [torr]","T_LGR [C]","mt1_LGR [us]","mt2_LGR [us]","T_ECpre [C]","T_EC1 [C]","T_EC2 [C]","p_inlet [hPa]","p_in [hPa]","p_out [hPa]","T_inlet [C]","RH_inlet [%]","dwpt_inlet [C]","T_vent [C]","RH_vent [%]","dwpt_vent [C]","flow_vent [l min-1]","flow_inlet [l min-1]","dwpt_sample [C]","T_room [C]"
2013-01-16 00:00:00,0.0,1.9271,0.0009,405.24,0.30,-1.0,0.0,138.16,26.23,24.61,36.30,0.04,-272.75,-272.75,-44,548,-937,20.6,0.9,-38.5,20.7,1.0,-37.8,5.73,2.46,-34.5,25.9
2013-01-16 00:01:00,0.0,1.9278,0.0011,405.17,0.33,-1.0,0.0,138.16,26.23,24.61,36.30,0.04,-272.75,-272.75,-44,548,-937,20.6,0.9,-38.6,20.7,0.9,-37.9,5.73,2.44,-34.5,25.9
2013-01-16 00:02:00,0.0,1.9294,0.0010,405.16,0.25,-1.0,0.0,138.16,26.23,24.61,36.30,0.04,-272.75,-272.74,-44,548,-937,20.6,0.9,-38.8,20.8,0.9,-38.0,5.73,2.42,-34.5,25.9
2013-01-16 00:03:00,0.0,1.9279,0.0012,405.19,0.31,-1.0,0.0,138.16,26.24,24.61,36.30,0.04,-272.74,-272.75,-44,548,-937,20.6,0.9,-38.7,20.8,1.0,-37.8,5.73,2.40,-34.5,25.9
2013-01-16 00:04:00,0.0,1.9286,0.0009,405.18,0.25,-1.0,0.0,138.16,26.24,24.61,36.30,0.04,-272.75,-272.75,-44,548,-937,20.6,0.9,-38.7,20.8,0.9,-37.8,5.73,2.39,-34.5,25.9
2013-01-16 00:05:00,0.0,1.9281,0.0010,405.18,0.25,-1.0,0.0,138.16,26.24,24.61,36.30,0.04,-272.75,-272.75,-44,548,-937,20.6,0.9,-38.5,20.8,1.0,-37.8,5.73,2.39,-34.5,25.9
2013-01-16 00:06:00,0.0,1.9278,0.0011,405.17,0.26,-1.0,0.0,138.16,26.25,24.61,36.30,0.04,-272.75,-272.75,-44,548,-937,20.6,0.9,-38.6,20.8,1.0,-37.8,5.73,2.42,-34.5,25.9
2013-01-16 00:07:00,0.0,1.9286,0.0010,405.30,0.32,-1.0,0.0,138.16,26.24,24.61,36.30,0.04,-272.75,-272.75,-44,548,-937,20.6,0.9,-38.7,20.8,0.9,-38.1,5.73,2.44,-34.5,25.9
2013-01-16 00:08:00,0.0,1.9266,0.0010,405.25,0.27,-1.0,0.0,138.16,26.24,24.61,36.30,0.04,-272.75,-272.75,-44,548,-937,20.6,0.9,-38.7,20.8,0.9,-38.1,5.73,2.45,-34.4,25.9
2013-01-16 00:09:00,0.0,1.9267,0.0011,405.07,0.32,-1.0,0.0,138.16,26.25,24.61,36.30,0.04,-272.75,-272.75,-44,548,-937,20.6,0.9,-38.8,20.8,0.9,-38.1,5.73,2.45,-34.5,25.9
2013-01-16 00:10:00,0.0,1.9261,0.0007,405.21,0.25,-1.0,0.0,138.16,26.25,24.61,36.30,0.04,-272.75,-272.75,-44,548,-937,20.6,0.9,-38.8,20.8,0.9,-38.0,5.73,2.44,-34.4,25.9
2013-01-16 00:11:00,0.0,1.9260,0.0009,405.09,0.27,-1.0,0.0,138.16,26.25,24.61,36.30,0.04,-272.75,-272.75,-44,548,-937,20.6,0.8,-39.0,20.8,0.9,-38.2,5.73,2.42,-34.4,25.9
2013-01-16 00:12:00,0.0,1.9259,0.0008,405.19,0.30,-1.0,0.0,138.16,26.25,24.61,36.30,0.04,-272.75,-272.75,-44,548,-937,20.6,0.8,-39.0,20.8,0.9,-38.4,5.73,2.40,-34.4,25.9
2013-01-16 00:13:00,0.0,1.9258,0.0009,405.18,0.27,-1.0,0.0,138.16,26.26,24.61,36.30,0.04,-272.75,-272.75,-44,548,-937,20.6,0.8,-39.1,20.8,0.9,-38.4,5.73,2.39,-34.4,25.9
2013-01-16 00:14:00,0.0,1.9261,0.0008,405.21,0.29,-1.0,0.0,138.16,26.26,24.61,36.30,0.04,-272.75,-272.75,-44,548,-937,20.6,0.8,-39.0,20.7,0.9,-38.4,5.73,2.39,-34.3,25.9
2013-01-16 00:15:00,0.0,1.9260,0.0009,405.28,0.27,-1.0,0.0,138.16,26.26,24.61,36.29,0.04,-272.75,-272.74,-44,548,-937,20.6,0.8,-39.1,20.8,0.9,-38.4,5.73,2.41,-34.4,25.9
2013-01-16 00:16:00,0.0,1.9262,0.0009,405.17,0.26,-1.0,0.0,138.15,26.26,24.61,36.30,0.04,-272.74,-272.75,-44,548,-937,20.6,0.8,-39.1,20.8,0.9,-38.4,5.73,2.44,-34.3,25.9
2013-01-16 00:17:00,0.0,1.9256,0.0010,405.15,0.30,-1.0,0.0,138.16,26.27,24.62,36.30,0.25,-271.05,-272.70,-44,549,-937,20.6,0.8,-39.1,20.8,0.9,-38.1,5.42,2.52,-37.9,25.9
2013-01-16 00:18:00,0.0,1.9262,0.0009,405.27,0.25,-1.0,0.0,138.16,26.27,24.61,36.29,0.04,-272.75,-272.75,-44,548,-937,20.6,0.8,-39.0,20.8,0.9,-38.1,5.73,2.45,-34.4,25.9
2013-01-16 00:19:00,0.0,1.9260,0.0007,405.30,0.26,-1.0,0.0,138.16,26.27,24.61,36.29,0.04,-272.75,-272.75,-44,548,-937,20.7,0.9,-38.7,20.8,0.9,-38.1,5.73,2.44,-34.3,25.9
2013-01-16 00:20:00,0.0,1.9263,0.0010,405.14,0.29,-1.0,0.0,138.16,26.27,24.61,36.29,0.04,-272.75,-272.75,-44,548,-936,20.6,0.9,-38.7,20.8,0.9,-38.0,5.73,2.42,-34.3,25.9
2013-01-16 00:21:00,0.0,1.9264,0.0011,405.15,0.28,-1.0,0.0,138.16,26.27,24.61,36.30,0.04,-272.75,-272.75,-44,548,-937,20.6,0.9,-38.7,20.8,0.9,-38.1,5.73,2.40,-34.3,25.9
2013-01-16 00:22:00,0.0,1.9273,0.0010,405.11,0.26,-1.0,0.0,138.16,26.27,24.61,36.30,0.04,-272.75,-272.75,-44,549,-937,20.6,0.9,-38.7,20.8,0.9,-38.1,5.73,2.39,-34.3,25.9
2013-01-16 00:23:00,0.0,1.9270,0.0009,405.15,0.27,-1.0,0.0,138.16,26.27,24.61,36.30,0.04,-272.75,-272.75,-44,549,-936,20.6,0.9,-38.7,20.8,0.9,-38.1,5.73,2.39,-34.3,25.9
2013-01-16 00:24:00,0.0,1.9275,0.0010,405.04,0.28,-1.0,0.0,138.16,26.28,24.61,36.31,0.04,-272.75,-272.75,-44,548,-937,20.6,0.9,-38.7,20.8,0.9,-38.1,5.73,2.41,-34.3,25.9
2013-01-16 00:25:00,0.0,1.9273,0.0008,405.18,0.25,-1.0,0.0,138.16,26.28,24.62,36.30,0.04,-272.75,-272.75,-44,548,-937,20.6,0.9,-38.8,20.8,0.9,-38.1,5.73,2.44,-34.3,25.9
2013-01-16 00:26:00,0.0,1.9273,0.0010,405.11,0.26,-1.0,0.0,138.16,26.28,24.61,36.30,0.04,-272.75,-272.75,-44,549,-936,20.6,0.9,-38.7,20.8,0.9,-38.1,5.73,2.45,-34.3,25.9
2013-01-16 00:27:00,0.0,1.9270,0.0009,405.22,0.29,-1.0,0.0,138.15,26.29,24.61,36.30,0.04,-272.75,-272.75,-44,548,-937,20.6,0.9,-38.6,20.8,0.9,-37.9,5.73,2.46,-34.3,25.9
2013-01-16 00:28:00,0.0,1.9266,0.0008,405.27,0.23,-1.0,0.0,138.15,26.29,24.61,36.30,0.04,-272.75,-272.75,-44,549,-936,20.7,0.9,-38.4,20.8,0.9,-37.8,5.73,2.44,-34.3,25.9
2013-01-16 00:29:00,0.0,1.9267,0.0011,405.17,0.23,-1.0,0.0,138.16,26.29,24.61,36.30,0.04,-272.74,-272.75,-44,549,-936,20.6,0.9,-38.5,20.8,1.0,-37.8,5.73,2.42,-34.3,25.9
2013-01-16 00:30:00,0.0,1.9268,0.0010,405.21,0.29,-1.0,0.0,138.16,26.29,24.61,36.30,0.04,-272.75,-272.75,-44,548,-937,20.7,0.9,-38.4,20.8,1.0,-37.8,5.73,2.40,-34.3,25.9
2013-01-16 00:31:00,0.0,1.9268,0.0008,405.04,0.29,-1.0,0.0,138.16,26.29,24.61,36.31,0.04,-272.75,-272.75,-44,548,-936,20.7,0.9,-38.5,20.8,0.9,-37.8,5.73,2.39,-34.3,25.9
2013-01-16 00:32:00,0.0,1.9284,0.0008,405.12,0.28,-1.0,0.0,138.16,26.29,24.61,36.30,0.04,-272.75,-272.75,-44,548,-936,20.7,0.9,-38.7,20.8,0.9,-37.9,5.73,2.39,-34.3,26.0
2013-01-16 00:33:00,0.0,1.9271,0.0009,405.11,0.28,-1.0,0.0,138.16,26.29,24.61,36.30,0.04,-272.75,-272.74,-44,548,-937,20.7,0.9,-38.7,20.8,0.9,-38.1,5.73,2.41,-34.3,26.0
2013-01-16 00:34:00,0.0,1.9268,0.0008,405.17,0.26,-1.0,0.0,138.16,26.29,24.61,36.29,0.04,-272.75,-272.75,-44,549,-936,20.6,0.9,-38.7,20.8,0.9,-38.1,5.73,2.43,-34.3,25.9
2013-01-16 00:35:00,0.0,1.9273,0.0009,405.16,0.26,-1.0,0.0,138.16,26.29,24.61,36.30,0.04,-272.75,-272.75,-44,549,-936,20.7,0.9,-38.6,20.8,0.9,-38.1,5.73,2.45,-34.3,26.0
2013-01-16 00:36:00,0.0,1.9267,0.0010,405.08,0.28,-1.0,0.0,138.16,26.29,24.61,36.30,0.04,-272.75,-272.75,-44,548,-937,20.7,0.9,-38.7,20.8,0.9,-38.1,5.73,2.45,-34.3,26.0
2013-01-16 00:37:00,0.0,1.9264,0.0010,405.14,0.28,-1.0,0.0,138.16,26.29,24.61,36.30,0.04,-272.75,-272.75,-44,548,-936,20.7,0.9,-38.7,20.8,0.9,-37.8,5.73,2.45,-34.3,25.9
2013-01-16 00:38:00,0.0,1.9267,0.0009,405.04,0.22,-1.0,0.0,138.16,26.30,24.61,36.30,0.04,-272.75,-272.75,-44,548,-936,20.7,0.9,-38.6,20.8,1.0,-37.8,5.73,2.43,-34.3,26.0
2013-01-16 00:39:00,0.0,1.9266,0.0008,405.03,0.29,-1.0,0.0,138.16,26.30,24.61,36.30,0.04,-272.74,-272.75,-44,548,-937,20.7,0.9,-38.5,20.8,1.0,-37.8,5.73,2.41,-34.3,25.9
2013-01-16 00:40:00,0.0,1.9260,0.0009,405.06,0.32,-1.0,0.0,138.15,26.30,24.61,36.30,0.04,-272.75,-272.75,-44,549,-936,20.7,0.9,-38.7,20.8,0.9,-37.8,5.73,2.39,-34.3,25.9
2013-01-16 00:41:00,0.0,1.9267,0.0011,405.04,0.30,-1.0,0.0,138.16,26.30,24.61,36.30,0.04,-272.75,-272.75,-44,549,-936,20.7,0.9,-38.7,20.8,0.9,-38.0,5.73,2.39,-34.3,25.9
2013-01-16 00:42:00,0.0,1.9277,0.0011,405.05,0.29,-1.0,0.0,138.15,26.30,24.61,36.30,0.04,-272.75,-272.75,-44,549,-937,20.7,0.9,-38.7,20.8,0.9,-38.1,5.73,2.41,-34.3,25.9
2013-01-16 00:43:00,0.0,1.9289,0.0009,405.09,0.27,-1.0,0.0,138.16,26.30,24.61,36.30,0.04,-272.74,-272.74,-44,549,-936,20.7,0.9,-38.7,20.8,0.9,-38.1,5.73,2.42,-34.3,26.0
2013-01-16 00:44:00,0.0,1.9278,0.0012,405.04,0.26,-1.0,0.0,138.16,26.30,24.61,36.31,0.04,-272.75,-272.75,-44,548,-936,20.7,0.9,-38.7,20.8,0.9,-38.0,5.73,2.44,-34.3,26.0
2013-01-16 00:45:00,0.0,1.9278,0.0010,404.96,0.26,-1.0,0.0,138.16,26.30,24.61,36.31,0.04,-272.75,-272.75,-44,549,-937,20.7,0.9,-38.7,20.8,0.9,-37.8,5.73,2.45,-34.3,26.0
2013-01-16 00:46:00,0.0,1.9284,0.0010,404.98,0.28,-1.0,0.0,138.16,26.31,24.61,36.31,0.04,-272.74,-272.75,-44,549,-936,20.7,0.9,-38.5,20.8,0.9,-37.8,5.73,2.45,-34.3,26.0
2013-01-16 00:47:00,0.0,1.9275,0.0010,405.15,0.26,-1.0,0.0,138.15,26.31,24.61,36.30,0.04,-272.75,-272.75,-44,549,-936,20.7,0.9,-38.5,20.8,1.0,-37.8,5.73,2.44,-34.3,25.9
2013-01-16 00:48:00,0.0,1.9289,0.0010,405.10,0.31,-1.0,0.0,138.16,26.31,24.61,36.30,0.04,-272.75,-272.75,-44,548,-937,20.7,0.9,-38.4,20.8,0.9,-37.8,5.73,2.41,-34.3,26.0
2013-01-16 00:49:00,0.0,1.9298,0.0009,405.05,0.25,-1.0,0.0,138.15,26.32,24.61,36.31,0.04,-272.75,-272.75,-44,549,-936,20.7,0.9,-38.5,20.8,0.9,-37.8,5.73,2.39,-34.3,26.0
2013-01-16 00:50:00,0.0,1.9282,0.0010,405.05,0.27,-1.0,0.0,138.15,26.32,24.61,36.30,0.04,-272.75,-272.75,-44,548,-936,20.7,0.9,-38.6,20.8,1.0,-37.8,5.73,2.39,-34.3,26.0
2013-01-16 00:51:00,0.0,1.9283,0.0010,405.15,0.27,-1.0,0.0,138.15,26.32,24.61,36.30,0.04,-272.75,-272.75,-44,549,-937,20.7,0.9,-38.7,20.8,0.9,-38.1,5.73,2.40,-34.3,26.0
2013-01-16 00:52:00,0.0,1.9286,0.0010,405.09,0.28,-1.0,0.0,138.16,26.32,24.61,36.30,0.04,-272.75,-272.75,-44,548,-936,20.7,0.9,-38.7,20.8,0.9,-38.1,5.73,2.41,-34.3,25.9
2013-01-16 00:53:00,0.0,1.9280,0.0009,405.09,0.24,-1.0,0.0,138.15,26.32,24.61,36.30,0.04,-272.75,-272.75,-44,549,-936,20.7,0.9,-38.7,20.8,0.9,-38.1,5.73,2.43,-34.3,25.9
2013-01-16 00:54:00,0.0,1.9277,0.0008,405.18,0.27,-1.0,0.0,138.15,26.32,24.61,36.30,0.04,-272.75,-272.75,-44,549,-936,20.7,0.9,-38.7,20.8,0.9,-38.0,5.73,2.45,-34.3,25.9
2013-01-16 00:55:00,0.0,1.9285,0.0008,405.10,0.27,-1.0,0.0,138.15,26.32,24.61,36.30,0.04,-272.75,-272.75,-44,548,-936,20.7,0.9,-38.6,20.8,0.9,-38.1,5.73,2.45,-34.3,26.0
2013-01-16 00:56:00,0.0,1.9291,0.0012,405.07,0.27,-1.0,0.0,138.15,26.32,24.61,36.30,0.04,-272.75,-272.74,-44,549,-936,20.7,0.9,-38.6,20.8,0.9,-38.1,5.73,2.44,-34.3,25.9
2013-01-16 00:57:00,0.0,1.9308,0.0012,405.19,0.25,-1.0,0.0,138.15,26.32,24.61,36.30,0.04,-272.75,-272.75,-44,548,-936,20.7,0.9,-38.7,20.8,0.9,-38.1,5.73,2.43,-34.3,26.0
2013-01-16 00:58:00,0.0,1.9315,0.0009,405.13,0.25,-1.0,0.0,138.15,26.33,24.61,36.30,0.04,-272.75,-272.75,-44,548,-936,20.7,0.9,-38.7,20.8,0.9,-38.0,5.73,2.40,-34.3,25.9
2013-01-16 00:59:00,0.0,1.9308,0.0011,405.19,0.23,-1.0,0.0,138.15,26.33,24.61,36.30,0.04,-272.75,-272.75,-44,549,-936,20.7,0.8,-38.9,20.8,0.9,-38.1,5.73,2.39,-34.3,25.9
2013-01-16 01:00:00,0.0,1.9296,0.0016,405.21,0.28,-1.0,0.0,138.15,26.33,24.61,36.30,0.04,-272.74,-272.75,-44,549,-936,20.7,0.9,-38.9,20.8,0.9,-38.4,5.73,2.39,-34.3,26.0
2013-01-16 01:01:00,0.0,1.9294,0.0012,405.14,0.28,-1.0,0.0,138.15,26.33,24.61,36.30,0.04,-272.75,-272.75,-44,549,-936,20.7,0.8,-39.0,20.8,0.9,-38.3,5.73,2.40,-34.3,25.9
2013-01-16 01:02:00,0.0,1.9277,0.0010,405.13,0.24,-1.0,0.0,138.16,26.34,24.62,36.29,0.04,-272.75,-272.75,-44,548,-936,20.7,0.8,-39.2,20.8,0.9,-38.3,5.73,2.42,-34.3,26.0
2013-01-16 01:03:00,0.0,1.9272,0.0008,405.02,0.31,-1.0,0.0,138.15,26.34,24.61,36.30,0.04,-272.75,-272.75,-44,549,-936,20.7,0.8,-39.3,20.8,0.9,-38.7,5.73,2.44,-34.3,26.0
2013-01-16 01:04:00,0.0,1.9278,0.0011,405.02,0.24,-1.0,0.0,138.15,26.34,24.61,36.31,0.04,-272.75,-272.75,-44,549,-936,20.7,0.8,-39.2,20.8,0.9,-38.7,5.73,2.45,-34.2,26.0
2013-01-16 01:05:00,0.0,1.9316,0.0010,405.06,0.25,-1.0,0.0,138.15,26.34,24.61,36.30,0.04,-272.75,-272.75,-44,548,-936,20.7,0.8,-39.3,20.8,0.9,-38.7,5.73,2.45,-34.3,26.0
2013-01-16 01:06:00,0.0,1.9329,0.0011,405.18,0.29,-1.0,0.0,138.15,26.34,24.61,36.30,0.04,-272.75,-272.74,-44,549,-936,20.7,0.8,-39.3,20.8,0.9,-38.7,5.73,2.44,-34.3,26.0
2013-01-16 01:07:00,0.0,1.9327,0.0014,405.04,0.23,-1.0,0.0,138.15,26.34,24.61,36.31,0.04,-272.75,-272.75,-44,549,-936,20.7,0.8,-39.3,20.8,0.9,-38.6,5.73,2.42,-34.3,26.0
2013-01-16 01:08:00,0.0,1.9306,0.0011,405.15,0.28,-1.0,0.0,138.15,26.34,24.61,36.30,0.04,-272.75,-272.75,-44,549,-937,20.7,0.8,-39.3,20.8,0.9,-38.6,5.73,2.40,-34.3,26.0
2013-01-16 01:09:00,0.0,1.9302,0.0009,405.19,0.30,-1.0,0.0,138.15,26.35,24.61,36.30,0.04,-272.75,-272.75,-44,548,-936,20.7,0.8,-39.4,20.8,0.9,-38.7,5.73,2.39,-34.3,26.0
2013-01-16 01:10:00,0.0,1.9322,0.0014,405.14,0.28,-1.0,0.0,138.15,26.35,24.61,36.30,0.04,-272.75,-272.75,-44,549,-936,20.7,0.8,-39.2,20.8,0.9,-38.6,5.73,2.40,-34.3,26.0
2013-01-16 01:11:00,0.0,1.9322,0.0010,405.14,0.25,-1.0,0.0,138.15,26.35,24.62,36.30,0.04,-272.75,-272.75,-44,549,-936,20.7,0.8,-39.3,20.8,0.9,-38.7,5.73,2.41,-34.2,26.0
2013-01-16 01:12:00,0.0,1.9316,0.0010,405.04,0.24,-1.0,0.0,138.15,26.35,24.62,36.30,0.04,-272.75,-272.75,-44,549,-936,20.7,0.8,-39.4,20.8,0.9,-38.7,5.73,2.43,-34.2,26.0
2013-01-16 01:13:00,0.0,1.9317,0.0011,404.99,0.28,-1.0,0.0,138.16,26.35,24.61,36.30,0.04,-272.74,-272.75,-44,549,-936,20.7,0.8,-39.3,20.8,0.9,-38.7,5.73,2.45,-34.3,26.0
2013-01-16 01:14:00,0.0,1.9313,0.0010,404.97,0.23,-1.0,0.0,138.15,26.35,24.61,36.30,0.04,-272.75,-272.75,-44,549,-936,20.7,0.8,-39.3,20.8,0.9,-38.7,5.73,2.45,-34.3,26.0
2013-01-16 01:15:00,0.0,1.9308,0.0012,404.92,0.32,-1.0,0.0,138.15,26.35,24.61,36.30,0.04,-272.75,-272.75,-44,548,-936,20.7,0.8,-39.3,20.8,0.9,-38.7,5.73,2.44,-34.2,26.0
2013-01-16 01:16:00,0.0,1.9314,0.0008,405.08,0.31,-1.0,0.0,138.15,26.36,24.61,36.30,0.04,-272.75,-272.75,-44,548,-936,20.7,0.8,-39.4,20.8,0.9,-38.7,5.73,2.42,-34.3,26.0
2013-01-16 01:17:00,0.0,1.9311,0.0010,405.09,0.26,-1.0,0.0,138.15,26.36,24.61,36.30,0.04,-272.75,-272.75,-44,549,-936,20.7,0.8,-39.3,20.8,0.9,-38.3,5.73,2.40,-34.3,26.0
2013-01-16 01:18:00,0.0,1.9309,0.0009,404.89,0.28,-1.0,0.0,138.15,26.36,24.61,36.30,0.04,-272.75,-272.75,-44,548,-936,20.7,0.8,-39.0,20.8,0.9,-38.4,5.73,2.39,-34.3,26.0
2013-01-16 01:19:00,0.0,1.9313,0.0009,405.00,0.22,-1.0,0.0,138.15,26.36,24.62,36.30,0.04,-272.75,-272.75,-44,549,-936,20.7,0.8,-39.0,20.8,0.9,-38.4,5.73,2.39,-34.2,26.0
2013-01-16 01:20:00,1.0,1.9021,0.0207,389.00,10.94,-1.0,0.0,138.15,26.36,24.61,36.31,0.04,-272.75,-272.75,-44,623,-936,20.7,0.9,-38.9,20.8,0.9,-38.3,5.73,2.37,-34.2,26.0
2013-01-16 01:21:00,1.0,1.8787,0.0009,376.66,0.28,-1.0,0.0,138.15,26.36,24.62,36.31,0.04,-272.75,-272.75,-44,621,-936,20.7,0.8,-39.1,20.8,0.9,-38.3,5.73,2.44,-34.3,26.0
2013-01-16 01:22:00,1.0,1.8788,0.0010,376.73,0.25,-1.0,0.0,138.15,26.36,24.61,36.32,0.04,-272.75,-272.75,-44,621,-936,20.7,0.8,-39.0,20.8,0.9,-38.3,5.73,2.45,-34.2,26.0
2013-01-16 01:23:00,1.0,1.8789,0.0008,376.76,0.28,-1.0,0.0,138.15,26.36,24.61,36.31,0.04,-272.75,-272.74,-44,621,-936,20.7,0.8,-39.0,20.9,0.9,-38.3,5.73,2.45,-34.2,26.0
2013-01-16 01:24:00,1.0,1.8791,0.0009,376.70,0.25,-1.0,0.0,138.15,26.37,24.61,36.32,0.04,-272.74,-272.75,-44,620,-936,20.8,0.8,-39.1,20.9,0.9,-38.3,5.73,2.43,-34.2,26.0
2013-01-16 01:25:00,0.0,1.9066,0.0194,392.26,11.01,-1.0,0.0,138.15,26.37,24.62,36.31,0.04,-272.75,-272.75,-44,546,-936,20.8,0.8,-39.0,20.9,0.9,-38.1,5.73,2.43,-34.2,26.1
2013-01-16 01:26:00,0.0,1.9295,0.0009,405.04,0.26,-1.0,0.0,138.15,26.37,24.61,36.31,0.04,-272.75,-272.74,-44,546,-936,20.8,0.9,-38.9,20.9,0.9,-38.0,5.73,2.39,-34.2,26.1
2013-01-16 01:27:00,0.0,1.9306,0.0018,404.99,0.29,-1.0,0.0,138.15,26.38,24.61,36.31,0.04,-272.74,-272.75,-44,547,-936,20.8,0.9,-38.6,20.9,0.9,-38.0,5.73,2.39,-34.2,26.1
2013-01-16 01:28:00,0.0,1.9317,0.0011,405.08,0.21,-1.0,0.0,138.15,26.38,24.61,36.30,0.04,-272.75,-272.75,-44,547,-936,20.8,0.9,-38.6,20.9,0.9,-38.0,5.73,2.40,-34.2,26.1
2013-01-16 01:29:00,0.0,1.9292,0.0013,405.08,0.29,-1.0,0.0,138.15,26.38,24.61,36.30,0.04,-272.75,-272.75,-44,547,-936,20.8,0.9,-38.6,21.0,0.9,-38.0,5.73,2.42,-34.2,26.1
2013-01-16 01:30:00,0.0,1.9276,0.0012,404.98,0.29,-1.0,0.0,138.15,26.39,24.61,36.30,0.04,-272.75,-272.75,-44,547,-936,20.9,0.9,-38.6,21.0,0.9,-38.0,5.73,2.44,-34.2,26.1
2013-01-16 01:31:00,0.0,1.9274,0.0008,404.97,0.26,-1.0,0.0,138.15,26.39,24.61,36.31,0.04,-272.75,-272.75,-44,547,-936,20.9,0.9,-38.5,21.0,0.9,-37.9,5.73,2.45,-34.1,26.1
2013-01-16 01:32:00,0.0,1.9286,0.0012,405.05,0.28,-1.0,0.0,138.15,26.40,24.61,36.30,0.04,-272.75,-272.75,-44,547,-936,20.9,0.9,-38.6,21.0,0.9,-38.0,5.73,2.44,-34.2,26.2
2013-01-16 01:33:00,0.0,1.9288,0.0010,404.97,0.32,-1.0,0.0,138.15,26.40,24.61,36.31,0.04,-272.75,-272.74,-44,547,-936,20.9,0.9,-38.5,21.0,0.9,-38.0,5.73,2.44,-34.2,26.1
2013-01-16 01:34:00,0.0,1.9282,0.0010,404.96,0.25,-1.0,0.0,138.15,26.41,24.62,36.31,0.04,-272.75,-272.75,-44,547,-936,20.9,0.9,-38.5,21.0,0.9,-37.9,5.73,2.42,-34.2,26.2
2013-01-16 01:35:00,0.0,1.9292,0.0009,405.01,0.25,-1.0,0.0,138.15,26.41,24.61,36.31,0.04,-272.75,-272.75,-44,547,-937,20.9,0.8,-38.9,21.0,0.9,-38.0,5.73,2.40,-34.2,26.2
2013-01-16 01:36:00,0.0,1.9296,0.0010,405.07,0.26,-1.0,0.0,138.15,26.42,24.61,36.30,0.04,-272.75,-272.75,-44,547,-936,21.0,0.9,-38.8,21.0,0.9,-38.2,5.73,2.40,-34.2,26.2
2013-01-16 01:37:00,0.0,1.9306,0.0012,405.06,0.26,-1.0,0.0,138.15,26.42,24.61,36.31,0.04,-272.75,-272.75,-44,547,-936,20.9,0.8,-38.8,21.1,0.9,-38.2,5.73,2.40,-34.2,26.2
2013-01-16 01:38:00,0.0,1.9317,0.0012,405.05,0.28,-1.0,0.0,138.15,26.43,24.61,36.31,0.04,-272.75,-272.75,-44,547,-936,21.0,0.8,-38.8,21.1,0.9,-38.3,5.73,2.40,-34.2,26.2
2013-01-16 01:39:00,0.0,1.9306,0.0012,405.01,0.30,-1.0,0.0,138.15,26.43,24.61,36.31,0.04,-272.74,-272.75,-44,547,-936,21.0,0.8,-38.9,21.1,0.9,-38.2,5.73,2.42,-34.2,26.2
2013-01-16 01:40:00,0.0,1.9306,0.0008,405.06,0.26,-1.0,0.0,138.15,26.44,24.61,36.30,0.04,-272.75,-272.74,-44,547,-936,21.0,0.8,-38.8,21.1,0.9,-38.2,5.73,2.43,-34.2,26.2
2013-01-16 01:41:00,0.0,1.9312,0.0011,405.11,0.28,-1.0,0.0,138.15,26.44,24.61,36.30,0.04,-272.75,-272.75,-44,548,-936,21.0,0.8,-38.8,21.1,0.9,-38.2,5.73,2.45,-34.2,26.2
2013-01-16 01:42:00,0.0,1.9314,0.0009,405.03,0.27,-1.0,0.0,138.15,26.45,24.61,36.31,0.04,-272.75,-272.75,-44,548,-936,21.0,0.8,-38.9,21.1,0.9,-38.2,5.73,2.45,-34.2,26.3
2013-01-16 01:43:00,0.0,1.9316,0.0010,405.07,0.26,-1.0,0.0,138.15,26.45,24.61,36.30,0.04,-272.75,-272.75,-44,548,-936,21.0,0.8,-39.0,21.1,0.9,-38.2,5.73,2.44,-34.2,26.3
2013-01-16 01:44:00,0.0,1.9312,0.0009,404.98,0.30,-1.0,0.0,138.15,26.46,24.62,36.30,0.04,-272.75,-272.75,-44,548,-936,21.0,0.8,-39.1,21.1,0.9,-38.2,5.73,2.42,-34.2,26.3
2013-01-16 01:45:00,0.0,1.9319,0.0009,405.02,0.26,-1.0,0.0,138.15,26.46,24.61,36.31,0.04,-272.75,-272.75,-44,548,-936,21.0,0.8,-38.9,21.1,0.9,-38.2,5.73,2.41,-34.2,26.3
2013-01-16 01:46:00,0.0,1.9314,0.0010,405.07,0.30,-1.0,0.0,138.15,26.47,24.62,36.31,0.04,-272.75,-272.75,-44,548,-936,21.0,0.9,-38.7,21.1,0.9,-38.2,5.73,2.40,-34.2,26.3
2013-01-16 01:47:00,0.0,1.9314,0.0010,404.94,0.23,-1.0,0.0,138.14,26.47,24.62,36.31,0.04,-272.75,-272.74,-44,548,-936,21.0,0.8,-38.8,21.1,0.9,-38.2,5.73,2.39,-34.1,26.3
2013-01-16 01:48:00,0.0,1.9313,0.0011,404.97,0.27,-1.0,0.0,138.14,26.48,24.62,36.31,0.04,-272.75,-272.75,-44,548,-936,21.0,0.8,-38.8,21.1,0.9,-38.2,5.73,2.39,-34.1,26.3
2013-01-16 01:49:00,0.0,1.9310,0.0009,404.96,0.29,-1.0,0.0,138.14,26.49,24.62,36.31,0.04,-272.75,-272.75,-44,548,-936,21.0,0.8,-38.8,21.1,0.9,-38.2,5.73,2.40,-34.1,26.3
2013-01-16 01:50:00,0.0,1.9312,0.0010,405.02,0.31,-1.0,0.0,138.14,26.49,24.62,36.31,0.04,-272.75,-272.75,-44,548,-936,21.1,0.8,-38.8,21.2,0.9,-38.2,5.73,2.42,-34.1,26.3
2013-01-16 01:51:00,0.0,1.9318,0.0009,405.08,0.24,-1.0,0.0,138.14,26.50,24.61,36.30,0.04,-272.75,-272.75,-44,548,-936,21.1,0.8,-38.8,21.2,0.9,-38.2,5.73,2.43,-34.2,26.4
2013-01-16 01:52:00,0.0,1.9318,0.0011,405.01,0.28,-1.0,0.0,138.14,26.50,24.61,36.31,0.04,-272.75,-272.75,-44,548,-936,21.1,0.8,-38.8,21.2,0.9,-38.2,5.73,2.44,-34.2,26.4
2013-01-16 01:53:00,0.0,1.9311,0.0010,404.95,0.27,-1.0,0.0,138.14,26.51,24.61,36.31,0.04,-272.75,-272.75,-44,548,-936,21.1,0.8,-38.8,21.2,0.9,-38.2,5.73,2.44,-34.1,26.4
2013-01-16 01:54:00,0.0,1.9304,0.0013,405.04,0.27,-1.0,0.0,138.14,26.52,24.61,36.31,0.04,-272.74,-272.75,-44,548,-936,21.1,0.8,-38.8,21.2,0.9,-38.0,5.73,2.44,-34.1,26.4
2013-01-16 01:55:00,0.0,1.9316,0.0009,404.90,0.25,-1.0,0.0,138.14,26.53,24.62,36.32,0.04,-272.75,-272.75,-44,548,-936,21.1,0.8,-38.9,21.2,0.9,-38.1,5.73,2.43,-34.1,26.4
2013-01-16 01:56:00,0.0,1.9319,0.0011,405.00,0.26,-1.0,0.0,138.14,26.53,24.62,36.31,0.04,-272.75,-272.75,-44,548,-936,21.1,0.9,-38.6,21.2,0.9,-38.1,5.73,2.43,-34.1,26.2
2013-01-16 01:57:00,0.0,1.9325,0.0011,405.05,0.22,-1.0,0.0,138.14,26.54,24.62,36.31,0.04,-272.74,-272.74,-44,548,-936,21.1,0.9,-38.5,21.2,0.9,-38.0,5.73,2.41,-34.3,25.7
2013-01-16 01:58:00,0.0,1.9331,0.0018,404.97,0.26,-1.0,0.0,138.15,26.54,24.62,36.31,0.04,-272.75,-272.75,-44,548,-936,21.0,0.9,-38.6,21.1,0.9,-37.9,5.73,2.39,-34.4,25.4
2013-01-16 01:59:00,0.0,1.9289,0.0011,404.74,0.25,-1.0,0.0,138.15,26.54,24.62,36.32,0.04,-272.75,-272.75,-44,548,-936,21.0,0.9,-38.6,21.0,0.9,-38.1,5.73,2.39,-34.6,25.3
2013-01-16 02:00:00,0.0,1.9285,0.0011,404.86,0.25,-1.0,0.0,138.16,26.53,24.62,36.31,0.04,-272.75,-272.75,-44,548,-936,20.9,0.9,-38.5,21.0,0.9,-37.7,5.73,2.41,-34.8,25.3
2013-01-16 02:01:00,0.0,1.9278,0.0010,404.93,0.30,-1.0,0.0,138.16,26.52,24.62,36.30,0.04,-272.75,-272.74,-44,547,-936,20.9,0.9,-38.3,20.9,0.9,-37.8,5.73,2.44,-34.9,25.2
2013-01-16 02:02:00,0.0,1.9280,0.0009,404.90,0.28,-1.0,0.0,138.16,26.51,24.61,36.31,0.04,-272.75,-272.75,-44,547,-936,20.8,0.9,-38.3,20.8,1.0,-37.8,5.73,2.47,-35.0,25.2
2013-01-16 02:03:00,0.0,1.9280,0.0012,404.88,0.26,-1.0,0.0,138.16,26.50,24.61,36.31,0.04,-272.75,-272.75,-44,546,-936,20.7,0.9,-38.3,20.7,1.0,-37.6,5.73,2.46,-35.1,25.1
2013-01-16 02:04:00,0.0,1.9290,0.0012,404.84,0.26,-1.0,0.0,138.17,26.49,24.62,36.31,0.04,-272.74,-272.75,-44,546,-936,20.7,0.9,-38.3,20.7,1.0,-37.6,5.73,2.41,-35.2,25.1
2013-01-16 02:05:00,0.0,1.9313,0.0008,405.07,0.26,-1.0,0.0,138.17,26.48,24.62,36.30,0.04,-272.75,-272.75,-44,545,-936,20.7,0.9,-38.3,20.6,1.0,-37.6,5.73,2.37,-35.3,25.0
2013-01-16 02:06:00,0.0,1.9297,0.0010,404.89,0.27,-1.0,0.0,138.17,26.47,24.61,36.31,0.04,-272.75,-272.75,-44,545,-936,20.6,0.9,-38.2,20.6,1.0,-37.6,5.73,2.40,-35.3,25.1
2013-01-16 02:07:00,0.0,1.9275,0.0015,404.91,0.21,-1.0,0.0,138.17,26.45,24.62,36.30,0.04,-272.75,-272.75,-44,545,-935,20.6,0.9,-38.1,20.6,1.0,-37.6,5.73,2.46,-35.4,24.9
2013-01-16 02:08:00,0.0,1.9260,0.0011,404.77,0.26,-1.0,0.0,138.17,26.42,24.62,36.31,0.04,-272.75,-272.75,-44,545,-936,20.6,0.9,-38.2,20.5,1.0,-37.7,5.73,2.49,-35.5,25.0
2013-01-16 02:09:00,0.0,1.9253,0.0010,404.77,0.25,-1.0,0.0,138.17,26.40,24.61,36.31,0.04,-272.75,-272.75,-44,544,-935,20.5,0.9,-38.2,20.5,1.0,-37.4,5.73,2.44,-35.5,24.9
"startDT [UTC]","vpos","CH4 [ppm]","stdev(CH4) [ppm]","CO2 [ppm]","stdev(CO2) [ppm]","H2O [ppm]","stdev(H2O)","p_LGR [torr]","T_LGR [C]","mt1_LGR [us]","mt2_LGR [us]","T_ECpre [C]","T_EC1 [C]","T_EC2 [C]","p_inlet [hPa]","p_in [hPa]","p_out [hPa]","T_inlet [C]","RH_inlet [%]","dwpt_inlet [C]","T_vent [C]","RH_vent [%]","dwpt_vent [C]","flow_vent [l min-1]","flow_inlet [l min-1]","dwpt_sample [C]","T_room [C]"
2013-01-16 02:13:00,0.0,1.9235,0.0008,404.65,0.27,-1.0,0.0,138.17,26.32,24.61,36.31,0.04,-272.75,-272.75,-44,543,-935,20.4,1.0,-38.0,20.3,1.0,-37.6,5.73,2.49,-35.8,24.9
2013-01-16 02:14:00,0.0,1.9233,0.0010,404.71,0.27,-1.0,0.0,138.18,26.32,24.61,36.30,0.04,-272.75,-272.75,-44,543,-935,20.4,1.0,-38.0,20.3,1.0,-37.5,5.73,2.40,-35.8,24.9
2013-01-16 02:15:00,0.0,1.9234,0.0010,404.64,0.25,-1.0,0.0,138.18,26.31,24.61,36.30,0.04,-272.74,-272.75,-44,543,-935,20.3,1.0,-38.0,20.2,1.0,-37.6,5.73,2.36,-35.8,24.9
2013-01-16 02:16:00,0.0,1.9228,0.0009,404.65,0.27,-1.0,0.0,138.18,26.30,24.62,36.30,0.04,-272.75,-272.75,-44,543,-935,20.3,0.9,-38.2,20.2,1.0,-37.6,5.73,2.44,-35.8,24.7
2013-01-16 02:17:00,0.0,1.9231,0.0012,404.68,0.27,-1.0,0.0,138.18,26.28,24.61,36.30,0.04,-272.75,-272.74,-43,543,-934,20.3,0.9,-38.3,20.1,1.0,-37.6,5.73,2.50,-35.9,24.7
2013-01-16 02:18:00,0.0,1.9233,0.0011,404.65,0.25,-1.0,0.0,138.18,26.26,24.61,36.30,0.04,-272.74,-272.75,-44,542,-934,20.2,0.9,-38.3,20.1,1.0,-37.6,5.73,2.44,-35.9,24.7
2013-01-16 02:19:00,0.0,1.9229,0.0009,404.61,0.26,-1.0,0.0,138.18,26.25,24.62,36.30,0.04,-272.75,-272.75,-44,542,-934,20.2,0.9,-38.3,20.1,1.0,-37.6,5.73,2.36,-35.9,24.7